Location: Asheville, NC
(35.6000°N, 82.5500°W)
Time: 20:40:02
(UTC-04:00)

Tiangong 2 - Pass Details

Date: 11 October 2017
Orbit: 388 x 391 km, 42.8° (Epoch: 21 October)

Event Time Altitude Azimuth Distance (km) Brightness Sun altitude
Exits shadow 06:11:09 34° 332° (NNW) 665 2.0 -17.5°
Maximum altitude 06:11:24 34° 343° (NNW) 657 2.1 -17.5°
Drops below altitude 10° 06:14:22 10° 51° (NE) 1,418 4.7 -16.9°
Sets 06:16:34 0° 61° (ENE) 2,276 6.2 -16.4°
